[[{"header":{"parameterUnit":"m.s-1","parameterCategory":1,"la1":30.2991,"la2":30.254,"lo1":-89.0895,"lo2":-89.0444,"dy":0.0017,"dx":0.0017,"nx":28,"ny":28,"refTime":"2025-09-17T21:00:00:Z","depth":0,"parameterNumber":2,"parameterNumberName":"U-component_of_WINDS"},"data":[0,0,0,0,0,0,0,0,0,0,0,0,0,0,0,0,0,0,0,0,0,0,0,0,0,0,0,0,0,0,0,0,0,0,0,0,0,0,0,0,0,0,0,0,0,0,0,0,0,0,0,0,0,0,0,0,0,0,1.0679,1.068,0,1.0724,1.0724,1.0725,1.076,1.076,1.076,1.0761,1.0802,1.0803,1.0804,0,0,0,0,0,0,0,0,0,0,0,0,0,1.062,1.0621,1.0679,1.068,1.0681,1.0724,1.0725,1.0725,1.076,1.076,1.0761,1.0761,1.0802,1.0803,1.0804,0,0,0,0,0,0,0,0,0,0,0,0,0,1.0653,1.0621,1.0679,1.0703,1.0706,1.0724,1.0725,1.0725,1.076,1.076,1.0761,1.0761,1.0802,1.0803,1.0804,1.0801,0,0,1.0808,1.0808,0,0,0,0,0,0,0,0,1.0651,1.0655,1.0699,1.0702,1.0705,1.0737,1.0719,1.075,1.076,1.0739,1.0761,1.0761,1.078,1.0783,1.079,1.0803,1.0805,1.0808,1.0809,1.0809,1.0809,0,0,0,0,0,0,0,1.0649,1.0654,1.0697,1.07,1.0703,1.071,1.0716,1.0725,1.0756,1.0741,1.0744,1.0749,1.0781,1.0789,1.0791,1.0805,1.0808,1.0809,1.081,1.081,1.0816,1.0816,0,0,0,0,0,0,1.0644,1.0652,1.0696,1.0698,1.0679,1.0711,1.0717,1.0726,1.0756,1.0761,1.0748,1.075,1.0787,1.079,1.0793,1.079,1.0809,1.081,1.0811,1.0817,1.0816,1.0816,0,0,0,0,0,0,1.0642,1.0647,1.0694,1.0676,1.0682,1.0711,1.0721,1.0727,1.0734,1.0761,1.0767,1.075,1.0787,1.0791,1.0799,1.0792,1.0811,1.0812,1.0817,1.0817,1.0816,1.0785,0,0,0,0,0,0,1.064,1.0647,1.0647,1.0676,1.0683,1.07,1.0721,1.0727,1.0736,1.0739,1.0765,1.0769,1.0788,1.0797,1.08,1.0794,1.0813,1.0818,1.0817,1.0816,1.0786,1.0783,1.078,0,0,0,0,0,1.0638,1.0635,1.0646,1.0651,1.0684,1.0699,1.0704,1.0726,1.0736,1.0735,1.0753,1.0769,1.0793,1.0797,1.0801,1.0795,1.0819,1.0817,1.0816,1.0788,1.0784,1.078,0,0,0,0,0,0,1.0603,1.064,1.0652,1.0659,1.0676,1.0705,1.0705,1.0721,1.0735,1.0737,1.0763,1.0768,1.0772,1.0785,1.0789,1.0793,1.0808,1.0807,1.0785,1.0781,1.0778,1.0774,1.0814,0,0,0,0,0,1.0597,1.0608,1.0638,1.0641,1.0649,1.0676,1.0683,1.0699,1.0717,1.0724,1.0743,1.0758,1.077,1.0776,1.0788,1.0789,1.0794,1.0787,1.0784,1.0781,1.0779,1.0779,1.0776,1.0812,1.0812,1.0812,0,0,1.0582,1.0604,1.0609,1.0635,1.065,1.0659,1.0681,1.0691,1.0697,1.0725,1.0734,1.0747,1.0767,1.0771,1.0773,1.0781,1.0771,1.0779,1.0777,1.0777,1.0778,1.0774,1.0771,1.0811,1.0811,1.0811,0,0,1.0561,1.0579,1.0583,1.0598,1.0621,1.0639,1.064,1.0667,1.0677,1.0686,1.0707,1.0715,1.0734,1.0747,1.0756,1.0739,1.0754,1.0742,1.0725,1.0724,1.0722,1.0719,1.0712,1.0709,1.0741,1.0741,1.0741,0,1.054,1.0556,1.0582,1.059,1.06,1.0628,1.0631,1.0644,1.0669,1.0675,1.0684,1.0708,1.0723,1.0729,1.0725,1.0732,1.0733,1.0739,1.072,1.0718,1.0716,1.0709,1.0707,1.074,1.074,1.074,1.074,0,1.0528,1.0539,1.0539,1.0564,1.0575,1.058,1.0606,1.0613,1.0628,1.0644,1.0652,1.0671,1.0687,1.069,1.0705,1.0699,1.0703,1.0716,1.073,1.0711,1.0704,1.0702,1.0737,1.0738,1.0738,1.0739,0,0,1.0485,1.0525,1.0524,1.0536,1.0563,1.0571,1.0578,1.0594,1.0599,1.0616,1.062,1.0636,1.0648,1.0658,1.0674,1.0674,1.0658,1.0687,1.0688,1.0679,1.0651,1.0639,1.0636,1.0669,1.0668,1.0668,1.0648,0,1.0467,1.0481,1.0504,1.051,1.0519,1.0546,1.0551,1.0568,1.0583,1.0592,1.0609,1.0619,1.0635,1.0641,1.0643,1.066,1.0652,1.0662,1.0671,1.0671,1.0664,1.0633,1.0621,1.0602,1.0646,1.0646,1.0646,0,1.0447,1.0463,1.047,1.0496,1.0501,1.0505,1.0522,1.0531,1.055,1.0561,1.0573,1.0591,1.0597,1.0612,1.062,1.0626,1.0632,1.064,1.064,1.064,1.0656,1.063,1.0596,1.0592,1.0643,1.0643,1.0643,0,1.0412,1.0436,1.0443,1.0452,1.0483,1.0485,1.0498,1.0518,1.0526,1.0541,1.0546,1.0561,1.0568,1.0578,1.0599,1.0608,1.0604,1.0621,1.0612,1.0612,1.0609,1.0608,1.0573,1.0615,1.0615,1.0615,1.0615,0,1.0388,1.0391,1.0427,1.0431,1.0434,1.0462,1.0464,1.0479,1.0496,1.0503,1.0527,1.0532,1.056,1.0568,1.0584,1.0588,1.0591,1.0599,1.0603,1.0596,1.0595,1.0598,1.0599,1.0615,1.0615,1.0615,1.0615,0,1.0349,1.0374,1.0383,1.0413,1.042,1.0421,1.0446,1.045,1.0467,1.0475,1.0478,1.0505,1.0515,1.0538,1.0554,1.0565,1.0564,1.0572,1.0558,1.056,1.0549,1.0549,1.0513,1.0509,1.0556,1.0555,1.0555,0,1.0331,1.0334,1.0364,1.0371,1.0383,1.0394,1.0403,1.0429,1.0437,1.0459,1.046,1.0473,1.0484,1.05,1.052,1.0532,1.054,1.0526,1.0541,1.0534,1.0537,1.0536,1.0535,1.0522,1.0522,1.0521,1.0521,0,1.0296,1.0308,1.0321,1.0338,1.0348,1.0362,1.0377,1.0381,1.0411,1.0418,1.043,1.0439,1.0457,1.0468,1.0484,1.0496,1.0512,1.0516,1.0514,1.0506,1.0496,1.0499,1.0546,1.0516,1.0517,1.0517,1.0517,1.0517,1.0266,1.0269,1.0291,1.0304,1.0319,1.0332,1.0337,1.0356,1.0367,1.0383,1.0399,1.0408,1.0427,1.0449,1.046,1.0468,1.0476,1.0474,1.0473,1.0471,1.0467,1.0497,1.0471,1.0471,1.0471,1.0471,1.0471,0,1.023,1.0246,1.0258,1.0279,1.0288,1.0306,1.0323,1.033,1.0339,1.0355,1.0366,1.0379,1.0391,1.0412,1.0425,1.0426,1.0434,1.0429,1.0428,1.043,1.046,1.0459,1.0422,1.0422,1.0422,1.0422,1.0422,1.0422,1.0213,1.0219,1.0233,1.0246,1.0262,1.0273,1.0281,1.0293,1.0307,1.032,1.033,1.0345,1.0363,1.0377,1.0388,1.0394,1.0396,1.0388,1.0396,1.0423,1.0428,1.0432,1.0432,1.0389,1.0389,1.0365,1.0365,1.0364]},{"header":{"parameterUnit":"m.s-1","parameterCategory":1,"la1":30.2991,"la2":30.254,"lo1":-89.0895,"lo2":-89.0444,"dy":0.0017,"dx":0.0017,"nx":28,"ny":28,"refTime":"2025-09-17T21:00:00:Z","depth":0,"parameterNumber":3,"parameterNumberName":"V-component_of_WINDS"},"data":[0,0,0,0,0,0,0,0,0,0,0,0,0,0,0,0,0,0,0,0,0,0,0,0,0,0,0,0,0,0,0,0,0,0,0,0,0,0,0,0,0,0,0,0,0,0,0,0,0,0,0,0,0,0,0,0,0,0,2.466,2.466,0,2.4661,2.4662,2.4662,2.4623,2.4622,2.4621,2.462,2.4622,2.4623,2.4624,0,0,0,0,0,0,0,0,0,0,0,0,0,2.4623,2.4624,2.466,2.466,2.466,2.4661,2.4662,2.4662,2.4624,2.4622,2.4621,2.462,2.4622,2.4623,2.4624,0,0,0,0,0,0,0,0,0,0,0,0,0,2.4633,2.4624,2.466,2.4641,2.4639,2.4661,2.4662,2.4662,2.4624,2.4622,2.4621,2.4619,2.4621,2.4623,2.4624,2.4664,0,0,2.4629,2.4629,0,0,0,0,0,0,0,0,2.4633,2.4634,2.4644,2.4642,2.4641,2.4641,2.4649,2.4662,2.4624,2.463,2.462,2.4619,2.4629,2.463,2.4634,2.4664,2.4664,2.4629,2.463,2.463,2.4631,0,0,0,0,0,0,0,2.4632,2.4634,2.466,2.4644,2.4642,2.4632,2.4632,2.4651,2.4638,2.4629,2.4626,2.4627,2.4628,2.4633,2.4634,2.4664,2.4629,2.463,2.4631,2.4632,2.4726,2.4728,0,0,0,0,0,0,2.4634,2.4634,2.466,2.466,2.4633,2.4634,2.4634,2.4642,2.4638,2.4636,2.4629,2.4625,2.4631,2.4632,2.4634,2.4679,2.463,2.4632,2.4633,2.4724,2.4726,2.4728,0,0,0,0,0,0,2.4633,2.4636,2.466,2.4646,2.4649,2.4637,2.4646,2.4643,2.4647,2.4637,2.4635,2.4635,2.463,2.4631,2.4657,2.4678,2.4633,2.4634,2.4723,2.4725,2.4727,2.477,0,0,0,0,0,0,2.4632,2.4636,2.4652,2.4647,2.465,2.4683,2.4647,2.4644,2.465,2.4646,2.4643,2.4641,2.4629,2.4654,2.4658,2.4679,2.4635,2.4721,2.4724,2.4727,2.4767,2.4774,2.478,0,0,0,0,0,2.4631,2.4664,2.4653,2.4656,2.4668,2.4685,2.4686,2.4671,2.4652,2.4667,2.466,2.4641,2.4676,2.4657,2.4661,2.4683,2.4719,2.4723,2.4726,2.4764,2.4772,2.4779,0,0,0,0,0,0,2.4671,2.4663,2.465,2.4683,2.4685,2.4678,2.4697,2.4681,2.4688,2.4684,2.4665,2.4665,2.4693,2.4691,2.4671,2.4721,2.4694,2.4698,2.4721,2.4729,2.4735,2.4735,2.4636,0,0,0,0,0,2.4684,2.4698,2.469,2.472,2.4721,2.4709,2.4716,2.4704,2.4705,2.4706,2.4701,2.4703,2.4714,2.4722,2.4732,2.4767,2.4765,2.4784,2.479,2.4796,2.4799,2.4816,2.4824,2.474,2.474,2.474,0,0,2.471,2.4708,2.4718,2.4728,2.4728,2.4742,2.471,2.4727,2.4737,2.4708,2.4731,2.4728,2.4729,2.4759,2.4772,2.4758,2.4822,2.48,2.4805,2.4805,2.4821,2.4829,2.4836,2.4743,2.4742,2.4742,0,0,2.4765,2.4765,2.4789,2.479,2.479,2.4782,2.4788,2.4784,2.478,2.4803,2.4781,2.4794,2.4814,2.4814,2.4818,2.4873,2.4855,2.4877,2.491,2.4927,2.4933,2.4939,2.4957,2.4964,2.4881,2.4881,2.4881,0,2.4798,2.4819,2.4803,2.4821,2.4826,2.48,2.4824,2.4825,2.4829,2.4833,2.4817,2.4841,2.484,2.4869,2.4882,2.4887,2.4892,2.4876,2.4934,2.4939,2.4945,2.4962,2.4969,2.4883,2.4883,2.4883,2.4883,0,2.4858,2.4873,2.4892,2.4896,2.4903,2.4924,2.4911,2.492,2.4908,2.4901,2.4924,2.4922,2.493,2.4936,2.4925,2.4964,2.4955,2.4937,2.4909,2.4955,2.4971,2.4977,2.4887,2.4886,2.4885,2.4885,0,0,2.4938,2.4932,2.4939,2.494,2.4939,2.495,2.497,2.4978,2.4985,2.4989,2.5004,2.5022,2.5005,2.5009,2.4997,2.5012,2.5054,2.4992,2.4992,2.5002,2.5095,2.5107,2.5115,2.5043,2.5044,2.5045,2.5094,0,2.499,2.5022,2.5008,2.5042,2.5055,2.5031,2.5048,2.5049,2.5043,2.5053,2.5047,2.5059,2.5037,2.5039,2.5053,2.5046,2.5072,2.5043,2.5056,2.5056,2.5054,2.5123,2.5136,2.5183,2.5101,2.5102,2.5102,0,2.5054,2.506,2.5095,2.509,2.5095,2.5111,2.5116,2.5127,2.5127,2.5122,2.5126,2.5111,2.5129,2.5103,2.5127,2.5107,2.5112,2.511,2.5111,2.5111,2.5081,2.5123,2.5197,2.5204,2.5112,2.5111,2.5111,0,2.5107,2.5123,2.5146,2.5148,2.5144,2.5155,2.5154,2.5152,2.5158,2.5163,2.5166,2.5174,2.5178,2.5184,2.5171,2.5153,2.5197,2.517,2.5192,2.5192,2.5201,2.52,2.5275,2.5207,2.5207,2.5207,2.5207,0,2.5165,2.5187,2.5169,2.5183,2.5207,2.5191,2.5214,2.5211,2.521,2.5222,2.5203,2.5214,2.5198,2.5208,2.5199,2.5219,2.5222,2.5217,2.5214,2.5218,2.5218,2.5219,2.5215,2.5209,2.5208,2.5208,2.5207,0,2.5227,2.5216,2.5239,2.5233,2.5232,2.5249,2.5244,2.5256,2.5249,2.5265,2.5268,2.5257,2.5268,2.5256,2.5267,2.526,2.5288,2.5281,2.5287,2.5285,2.5307,2.5304,2.5384,2.5393,2.5321,2.5322,2.5322,0,2.5264,2.528,2.5275,2.5282,2.5282,2.5293,2.5298,2.5284,2.529,2.5291,2.5303,2.5312,2.5319,2.5338,2.533,2.5338,2.533,2.5358,2.5331,2.5334,2.5328,2.5327,2.5328,2.5362,2.5363,2.5364,2.5365,0,2.533,2.5324,2.5332,2.5338,2.5345,2.5349,2.5352,2.5359,2.5343,2.5351,2.5362,2.5367,2.5378,2.5387,2.5392,2.5391,2.5375,2.5373,2.5378,2.5382,2.5384,2.5381,2.53,2.5371,2.537,2.537,2.537,2.5369,2.5379,2.5392,2.539,2.54,2.54,2.5403,2.5414,2.5409,2.5417,2.5424,2.5415,2.5428,2.5428,2.5433,2.5434,2.5444,2.5432,2.544,2.5442,2.5443,2.5446,2.5384,2.5445,2.5445,2.5445,2.5444,2.5444,0,2.5443,2.5441,2.545,2.5454,2.5461,2.5446,2.5449,2.5456,2.5467,2.5468,2.5475,2.5487,2.5496,2.5489,2.5497,2.5506,2.5498,2.5508,2.5506,2.5506,2.5457,2.5451,2.5513,2.5513,2.5513,2.5513,2.5513,2.5513,2.5476,2.5497,2.549,2.551,2.5508,2.552,2.5523,2.5525,2.5526,2.554,2.5547,2.5543,2.554,2.5547,2.5555,2.5552,2.5555,2.5567,2.5562,2.5516,2.5509,2.5503,2.5497,2.5568,2.5568,2.561,2.561,2.5611]}]]